TimePDT,TemperatureF,Dew PointF,Humidity,Sea Level PressureIn,VisibilityMPH,Wind Direction,Wind SpeedMPH,Gust SpeedMPH,PrecipitationIn,Events,Conditions,WindDirDegrees,DateUTC
12:21 AM,51.8,51.8,100,30.00,1.8,Calm,Calm,-,N/A,,Scattered Clouds,0,2013-08-16 07:21:00
12:25 AM,51.8,51.8,100,30.00,0.8,Calm,Calm,-,N/A,,Mist,0,2013-08-16 07:25:00
12:51 AM,51.8,50.0,94,30.00,1.5,Calm,Calm,-,N/A,,Mostly Cloudy,0,2013-08-16 07:51:00
12:53 AM,51.1,50.0,96,30.00,1.8,Calm,Calm,-,N/A,,Mostly Cloudy,0,2013-08-16 07:53:00
1:09 AM,51.8,51.8,100,30.00,0.5,Calm,Calm,-,N/A,Fog,Fog,0,2013-08-16 08:09:00
1:35 AM,51.8,51.8,100,30.00,2.5,Calm,Calm,-,N/A,,Mostly Cloudy,0,2013-08-16 08:35:00
1:39 AM,51.8,51.8,100,30.00,4.0,Calm,Calm,-,N/A,,Scattered Clouds,0,2013-08-16 08:39:00
1:53 AM,52.0,52.0,100,30.01,4.0,Calm,Calm,-,N/A,,Partly Cloudy,0,2013-08-16 08:53:00
2:53 AM,51.1,50.0,96,30.00,3.0,Calm,Calm,-,N/A,,Clear,0,2013-08-16 09:53:00
3:07 AM,50.0,50.0,100,29.99,4.0,Calm,Calm,-,N/A,,Partly Cloudy,0,2013-08-16 10:07:00
3:53 AM,48.9,48.9,100,30.00,3.0,Calm,Calm,-,N/A,,Clear,0,2013-08-16 10:53:00
3:57 AM,48.2,48.2,100,29.99,1.8,Calm,Calm,-,N/A,,Clear,0,2013-08-16 10:57:00
4:02 AM,51.8,48.2,88,30.00,0.8,Calm,Calm,-,N/A,,Mist,0,2013-08-16 11:02:00
4:40 AM,51.8,50.0,94,29.99,2.0,Calm,Calm,-,N/A,,Mostly Cloudy,0,2013-08-16 11:40:00
4:45 AM,51.8,50.0,94,29.99,4.0,Calm,Calm,-,N/A,,Scattered Clouds,0,2013-08-16 11:45:00
4:53 AM,50.0,50.0,100,29.99,5.0,Calm,Calm,-,N/A,,Partly Cloudy,0,2013-08-16 11:53:00
5:41 AM,48.2,48.2,100,30.00,1.8,Calm,Calm,-,N/A,,Partly Cloudy,0,2013-08-16 12:41:00
5:46 AM,48.2,48.2,100,30.00,0.8,Calm,Calm,-,N/A,,Mist,0,2013-08-16 12:46:00
5:53 AM,48.9,48.9,100,30.00,0.5,Calm,Calm,-,N/A,Fog,Fog,0,2013-08-16 12:53:00
6:46 AM,50.0,50.0,100,30.01,1.2,Calm,Calm,-,N/A,,Mostly Cloudy,0,2013-08-16 13:46:00
6:53 AM,51.1,51.1,100,30.01,2.5,Calm,Calm,-,N/A,,Mostly Cloudy,0,2013-08-16 13:53:00
7:01 AM,51.8,51.8,100,30.01,5.0,Calm,Calm,-,N/A,,Mostly Cloudy,0,2013-08-16 14:01:00
7:53 AM,57.0,57.0,100,30.01,10.0,Calm,Calm,-,N/A,,Overcast,0,2013-08-16 14:53:00
8:05 AM,57.2,57.2,100,30.02,10.0,Calm,Calm,-,N/A,,Overcast,0,2013-08-16 15:05:00
8:25 AM,55.4,55.4,100,30.02,6.0,Calm,Calm,-,N/A,,Overcast,0,2013-08-16 15:25:00
8:40 AM,55.4,55.4,100,30.01,1.8,Calm,Calm,-,N/A,,Overcast,0,2013-08-16 15:40:00
8:51 AM,57.2,57.2,100,30.01,0.5,Calm,Calm,-,N/A,Fog,Fog,0,2013-08-16 15:51:00
8:53 AM,57.0,57.0,100,30.01,0.5,Calm,Calm,-,N/A,Fog,Fog,0,2013-08-16 15:53:00
9:44 AM,60.8,60.8,100,30.02,1.2,Calm,Calm,-,N/A,,Overcast,0,2013-08-16 16:44:00
9:53 AM,61.0,60.1,97,30.03,1.5,Calm,Calm,-,N/A,,Overcast,0,2013-08-16 16:53:00
10:06 AM,62.6,60.8,94,30.02,3.0,East,3.5,-,N/A,,Overcast,90,2013-08-16 17:06:00
10:34 AM,62.6,60.8,94,30.02,9.0,Variable,3.5,-,N/A,,Overcast,0,2013-08-16 17:34:00
10:53 AM,66.0,62.1,87,30.02,10.0,SSE,3.5,-,N/A,,Overcast,150,2013-08-16 17:53:00
11:53 AM,66.9,62.1,84,30.03,10.0,ESE,4.6,-,N/A,,Overcast,110,2013-08-16 18:53:00
12:06 PM,68.0,62.6,83,30.03,10.0,SSE,3.5,-,N/A,,Overcast,160,2013-08-16 19:06:00
12:26 PM,69.8,62.6,78,30.02,10.0,Variable,3.5,-,N/A,,Overcast,0,2013-08-16 19:26:00
12:53 PM,71.1,62.1,73,30.02,10.0,SE,6.9,-,N/A,,Mostly Cloudy,140,2013-08-16 19:53:00
1:53 PM,73.0,62.1,68,30.01,10.0,Variable,5.8,-,N/A,,Scattered Clouds,0,2013-08-16 20:53:00
2:53 PM,73.9,59.0,59,30.00,10.0,SE,3.5,-,N/A,,Mostly Cloudy,140,2013-08-16 21:53:00
3:53 PM,73.0,61.0,66,30.00,10.0,ESE,4.6,-,N/A,,Clear,120,2013-08-16 22:53:00
4:53 PM,73.9,57.9,57,29.99,10.0,SSW,3.5,-,N/A,,Clear,210,2013-08-16 23:53:00
5:53 PM,71.1,57.9,63,29.98,10.0,SW,8.1,-,N/A,,Clear,230,2013-08-17 00:53:00
6:53 PM,68.0,57.0,68,29.98,10.0,Calm,Calm,-,N/A,,Partly Cloudy,0,2013-08-17 01:53:00
7:53 PM,63.0,55.9,78,29.98,10.0,Calm,Calm,-,N/A,,Scattered Clouds,0,2013-08-17 02:53:00
8:53 PM,61.0,55.0,81,29.99,10.0,Calm,Calm,-,N/A,,Scattered Clouds,0,2013-08-17 03:53:00
9:53 PM,57.0,53.1,87,30.00,10.0,Calm,Calm,-,N/A,,Overcast,0,2013-08-17 04:53:00
10:53 PM,57.0,53.1,87,30.01,10.0,Calm,Calm,-,0.00,,Overcast,0,2013-08-17 05:53:00
11:53 PM,55.9,53.1,90,30.00,10.0,Calm,Calm,-,0.00,,Overcast,0,2013-08-17 06:53:00